Voltar ao catálogo

STARLINK-6152

AtivoComunicaçõesVLEO
NORAD 57121·PAYLOAD·🇺🇸 United States

Lançado Jun 23, 2023 de Cape Canaveral Space Force Station

Loading…

Próximas Passagens (próximas 24 horas)

TLE

AtualizadoSource: CelesTrak SupGP

Época: Sep 14, 2026, 13:15 UTC

1 57121C 23090W   26257.55256944  .00059643  00000+0  21598-2 0  2572
2 57121  43.0028 294.6151 0002130 286.4653 319.4691 15.27555409    10

Acompanhe STARLINK-6152 em tempo real com AllMySat

Download on the App Store